This is the latest recevied weather packets stored in our database for station/object N0MR. If no packets are shown the sender has not sent any weather packets the latest 10 day(s).
| Time | Temp. | Humidity | Pressure | Rain* | Wind** | Luminosity | Snow |
|---|---|---|---|---|---|---|---|
| 1788669562 | 13.33° C | 95% | 1018.8 hPa | 0 mm | - | - | - |
| 1788668966 | 13.33° C | 95% | 1018.8 hPa | 0 mm | - | - | - |
| 1788668363 | 13.89° C | 94% | 1018.7 hPa | 0 mm | - | - | - |
| 1788667762 | 13.89° C | 94% | 1018.6 hPa | 0 mm | - | - | - |
| 1788667163 | 13.89° C | 94% | 1018.6 hPa | 0 mm | - | - | - |
| 1788666562 | 14.44° C | 95% | 1018.2 hPa | 0 mm | - | - | - |
| 1788665962 | 14.44° C | 95% | 1018.2 hPa | 0 mm | - | - | - |
| 1788665372 | 14.44° C | 95% | 1018.1 hPa | 0 mm | - | - | - |
| 1788664763 | 14.44° C | 95% | 1018.1 hPa | 0 mm | - | - | - |
| 1788664163 | 15° C | 95% | 1018.1 hPa | 0 mm | - | - | - |
| 1788663566 | 15° C | 95% | 1018.1 hPa | 0 mm | - | - | - |
| 1788662963 | 15° C | 95% | 1018 hPa | 0 mm | - | - | - |
| 1788662362 | 15° C | 95% | 1018 hPa | 0 mm | - | - | - |
| 1788661763 | 15.56° C | 94% | 1018.1 hPa | 0 mm | - | - | - |
| 1788661173 | 15.56° C | 94% | 1018.1 hPa | 0 mm | - | - | - |
| 1788656968 | 16.67° C | 93% | 1017.3 hPa | 0 mm | - | - | - |
| 1788656368 | 17.22° C | 92% | 1017.4 hPa | 0 mm | - | - | - |
| 1788655768 | 17.22° C | 92% | 1017.4 hPa | 0 mm | - | - | - |
| 1788655165 | 17.22° C | 92% | 1017.1 hPa | 0 mm | - | - | - |
| 1788654567 | 17.22° C | 92% | 1017.1 hPa | 0 mm | - | - | - |
| 1788653965 | 17.78° C | 91% | 1017.2 hPa | 0 mm | - | - | - |
| 1788653374 | 17.78° C | 91% | 1017.2 hPa | 0 mm | - | - | - |
| 1788652764 | 17.78° C | 88% | 1017.3 hPa | 0 mm | - | - | - |
| 1788652164 | 17.78° C | 88% | 1017.3 hPa | 0 mm | - | - | - |
| 1788651564 | 18.33° C | 87% | 1017.3 hPa | 0 mm | - | - | - |
* Rain latest hour (hover to see other rain measurements)
** Current wind speed in m/s (hover to see current wind gust speed)